| time (UTC) | temp F | wind direction | speed MPH | gust MPH | rain 1hr in | rain 24hr in | rain mn in | humidity % | barometer mb |
| 20260507063743 | 54 | 307 | 0.0 | 0.0 | 0.00 | 0.00 | 0.00 | 16 | 1017.5 |
| 20260507063242 | 54 | 307 | 0.0 | 0.0 | 0.00 | 0.00 | 0.00 | 17 | 1017.5 |
| 20260507062742 | 54 | 307 | 0.0 | 0.0 | 0.00 | 0.00 | 0.00 | 18 | 1017.5 |
| 20260507062242 | 54 | 307 | 0.0 | 0.0 | 0.00 | 0.00 | 0.00 | 18 | 1017.5 |
| 20260507061742 | 54 | 307 | 0.0 | 0.0 | 0.00 | 0.00 | 0.00 | 19 | 1017.4 |
| 20260507061242 | 54 | 307 | 0.0 | 0.0 | 0.00 | 0.00 | 0.00 | 19 | 1017.5 |
| 20260507060742 | 54 | 307 | 0.0 | 0.0 | 0.00 | 0.00 | 0.00 | 19 | 1017.5 |
| 20260507060242 | 55 | 307 | 0.0 | 0.0 | 0.00 | 0.00 | 0.00 | 19 | 1017.5 |
| 20260507055742 | 55 | 307 | 0.0 | 0.0 | 0.00 | 0.00 | 0.00 | 19 | 1017.5 |
| 20260507055242 | 55 | 307 | 0.0 | 0.0 | 0.00 | 0.00 | 0.00 | 19 | 1017.4 |
| 20260507054742 | 55 | 307 | 0.0 | 0.0 | 0.00 | 0.00 | 0.00 | 19 | 1017.4 |
| 20260507054242 | 55 | 307 | 0.0 | 0.0 | 0.00 | 0.00 | 0.00 | 18 | 1017.4 |
| 20260507053242 | 56 | 307 | 0.0 | 0.0 | 0.00 | 0.00 | 0.00 | 18 | 1017.5 |
| 20260507052741 | 56 | 307 | 0.0 | 0.0 | 0.00 | 0.00 | 0.00 | 18 | 1017.4 |
| 20260507052242 | 56 | 307 | 0.0 | 0.0 | 0.00 | 0.00 | 0.00 | 19 | 1017.5 |
| 20260507051741 | 56 | 307 | 0.0 | 0.0 | 0.00 | 0.00 | 0.00 | 19 | 1017.6 |
| 20260507050741 | 56 | 307 | 0.0 | 0.0 | 0.00 | 0.00 | 0.00 | 19 | 1017.6 |
| 20260507045741 | 57 | 307 | 0.0 | 0.0 | 0.00 | 0.00 | 0.00 | 20 | 1017.6 |
| 20260507045241 | 57 | 307 | 0.0 | 0.0 | 0.00 | 0.00 | 0.00 | 20 | 1017.5 |
| 20260507044741 | 57 | 307 | 0.0 | 0.0 | 0.00 | 0.00 | 0.00 | 20 | 1017.5 |
| 20260507044241 | 57 | 307 | 0.0 | 0.0 | 0.00 | 0.00 | 0.00 | 21 | 1017.4 |
| 20260507043741 | 57 | 307 | 0.0 | 0.0 | 0.00 | 0.00 | 0.00 | 21 | 1017.4 |
| 20260507043240 | 57 | 307 | 0.0 | 0.0 | 0.00 | 0.00 | 0.00 | 22 | 1017.3 |
| 20260507042740 | 57 | 307 | 0.0 | 0.0 | 0.00 | 0.00 | 0.00 | 22 | 1017.3 |
| 20260507042241 | 57 | 307 | 0.0 | 0.0 | 0.00 | 0.00 | 0.00 | 23 | 1017.2 |
| 20260507041241 | 58 | 307 | 0.0 | 0.0 | 0.00 | 0.00 | 0.00 | 25 | 1017.2 |
| 20260507040240 | 58 | 307 | 0.0 | 1.0 | 0.00 | 0.00 | 0.00 | 27 | 1017.1 |
| 20260507034740 | 59 | 227 | 0.0 | 0.0 | 0.00 | 0.00 | 0.00 | 29 | 1016.9 |
| 20260507033740 | 59 | 230 | 0.0 | 0.0 | 0.00 | 0.00 | 0.00 | 31 | 1016.7 |
| 20260507033240 | 59 | 230 | 0.0 | 4.0 | 0.00 | 0.00 | 0.00 | 32 | 1016.7 |
| 20260507032240 | 60 | 230 | 0.0 | 3.0 | 0.00 | 0.00 | 0.00 | 34 | 1016.6 |
| 20260507031739 | 60 | 229 | 0.0 | 0.0 | 0.00 | 0.00 | 0.00 | 35 | 1016.6 |
| 20260507031239 | 60 | 229 | 0.0 | 1.0 | 0.00 | 0.00 | 0.00 | 36 | 1016.6 |
| 20260507030740 | 61 | 229 | 0.0 | 4.0 | 0.00 | 0.00 | 0.00 | 37 | 1016.4 |
| 20260507030241 | 61 | 229 | 0.0 | 4.0 | 0.00 | 0.00 | 0.00 | 38 | 1016.5 |
| 20260507025739 | 61 | 227 | 0.0 | 4.0 | 0.00 | 0.00 | 0.00 | 38 | 1016.4 |
| 20260507025239 | 62 | 227 | 0.0 | 4.0 | 0.00 | 0.00 | 0.00 | 39 | 1016.3 |
| 20260507024739 | 62 | 226 | 0.0 | 3.0 | 0.00 | 0.00 | 0.00 | 40 | 1016.3 |
| 20260507024240 | 63 | 226 | 0.0 | 3.0 | 0.00 | 0.00 | 0.00 | 40 | 1016.4 |
| 20260507023739 | 63 | 227 | 0.0 | 0.0 | 0.00 | 0.00 | 0.00 | 41 | 1016.3 |
| 20260507023239 | 63 | 227 | 0.0 | 5.0 | 0.00 | 0.00 | 0.00 | 41 | 1016.3 |
| 20260507022739 | 63 | 226 | 0.0 | 5.0 | 0.00 | 0.00 | 0.00 | 42 | 1016.2 |
| 20260507022239 | 64 | 313 | 0.0 | 6.0 | 0.00 | 0.00 | 0.00 | 43 | 1016.1 |
| 20260507021738 | 64 | 313 | 0.0 | 6.0 | 0.00 | 0.00 | 0.00 | 44 | 1016.1 |
| 20260507021239 | 64 | 240 | 0.0 | 6.0 | 0.00 | 0.00 | 0.00 | 44 | 1016.1 |
| 20260507020739 | 65 | 241 | 0.0 | 7.0 | 0.00 | 0.00 | 0.00 | 45 | 1016.1 |
| 20260507015739 | 66 | 302 | 0.0 | 6.0 | 0.00 | 0.00 | 0.00 | 46 | 1016.0 |
| 20260507015239 | 66 | 309 | 3.0 | 6.0 | 0.00 | 0.00 | 0.00 | 46 | 1016.0 |
| 20260507014739 | 67 | 310 | 0.0 | 6.0 | 0.00 | 0.00 | 0.00 | 47 | 1015.8 |
| 20260507014238 | 67 | 313 | 0.0 | 9.0 | 0.00 | 0.00 | 0.00 | 47 | 1015.9 |
| 20260507013738 | 68 | 235 | 1.0 | 9.0 | 0.00 | 0.00 | 0.00 | 47 | 1015.7 |
| 20260507013238 | 68 | 200 | 4.0 | 7.0 | 0.00 | 0.00 | 0.00 | 47 | 1015.8 |
| 20260507011738 | 69 | 258 | 0.0 | 12.0 | 0.00 | 0.00 | 0.00 | 47 | 1015.7 |
| 20260507010738 | 70 | 213 | 5.0 | 10.0 | 0.00 | 0.00 | 0.00 | 47 | 1015.8 |
| 20260507010237 | 70 | 311 | 0.0 | 11.0 | 0.00 | 0.00 | 0.00 | 47 | 1015.8 |
| 20260507005737 | 70 | 246 | 3.0 | 11.0 | 0.00 | 0.00 | 0.00 | 46 | 1015.7 |
| 20260507005238 | 71 | 267 | 0.0 | 10.0 | 0.00 | 0.00 | 0.00 | 46 | 1015.7 |
| 20260507004737 | 71 | 228 | 4.0 | 10.0 | 0.00 | 0.00 | 0.00 | 46 | 1015.6 |
| 20260507004237 | 71 | 260 | 4.0 | 10.0 | 0.00 | 0.00 | 0.00 | 46 | 1015.7 |
| 20260507003739 | 72 | 269 | 3.0 | 7.0 | 0.00 | 0.00 | 0.00 | 46 | 1015.6 |
| 20260507003238 | 72 | 238 | 1.0 | 10.0 | 0.00 | 0.00 | 0.00 | 45 | 1015.6 |
| 20260507002738 | 72 | 246 | 1.0 | 10.0 | 0.00 | 0.00 | 0.00 | 45 | 1015.6 |
| 20260507002237 | 72 | 235 | 4.0 | 9.0 | 0.00 | 0.00 | 0.00 | 45 | 1015.5 |
| 20260507001737 | 72 | 123 | 2.0 | 10.0 | 0.00 | 0.00 | 0.00 | 45 | 1015.5 |
| 20260507001237 | 72 | 268 | 2.0 | 10.0 | 0.00 | 0.00 | 0.00 | 45 | 1015.5 |
| 20260507000237 | 73 | 255 | 0.0 | 13.0 | 0.00 | 0.00 | 0.00 | 45 | 1015.4 |
| 20260506235737 | 73 | 253 | 1.0 | 13.0 | 0.00 | 0.00 | 0.00 | 45 | 1015.4 |
| 20260506235237 | 73 | 178 | 0.0 | 9.0 | 0.00 | 0.00 | 0.00 | 45 | 1015.5 |
| 20260506234736 | 72 | 237 | 4.0 | 11.0 | 0.00 | 0.00 | 0.00 | 45 | 1015.5 |
| 20260506234236 | 73 | 194 | 3.0 | 11.0 | 0.00 | 0.00 | 0.00 | 45 | 1015.4 |
| 20260506233736 | 73 | 300 | 3.0 | 9.0 | 0.00 | 0.00 | 0.00 | 45 | 1015.4 |
| 20260506233236 | 73 | 157 | 0.0 | 10.0 | 0.00 | 0.00 | 0.00 | 45 | 1015.5 |
| 20260506232736 | 73 | 200 | 0.0 | 12.0 | 0.00 | 0.00 | 0.00 | 45 | 1015.4 |
| 20260506232236 | 73 | 223 | 0.0 | 12.0 | 0.00 | 0.00 | 0.00 | 45 | 1015.4 |
| 20260506231737 | 73 | 234 | 0.0 | 10.0 | 0.00 | 0.00 | 0.00 | 45 | 1015.4 |
| 20260506231236 | 73 | 315 | 3.0 | 10.0 | 0.00 | 0.00 | 0.00 | 45 | 1015.5 |
| 20260506230236 | 74 | 209 | 2.0 | 12.0 | 0.00 | 0.00 | 0.00 | 44 | 1015.6 |
| 20260506225736 | 75 | 232 | 0.0 | 12.0 | 0.00 | 0.00 | 0.00 | 43 | 1015.5 |
| 20260506225235 | 75 | 273 | 1.0 | 9.0 | 0.00 | 0.00 | 0.00 | 43 | 1015.6 |
| 20260506224735 | 75 | 243 | 0.0 | 10.0 | 0.00 | 0.00 | 0.00 | 43 | 1015.7 |
| 20260506223735 | 75 | 304 | 1.0 | 11.0 | 0.00 | 0.00 | 0.00 | 43 | 1015.7 |
| 20260506223235 | 75 | 238 | 2.0 | 12.0 | 0.00 | 0.00 | 0.00 | 43 | 1015.8 |
| 20260506222736 | 76 | 269 | 0.0 | 12.0 | 0.00 | 0.00 | 0.00 | 43 | 1015.9 |
| 20260506221735 | 75 | 326 | 2.0 | 13.0 | 0.00 | 0.00 | 0.00 | 43 | 1015.8 |
| 20260506221235 | 75 | 312 | 4.0 | 15.0 | 0.00 | 0.00 | 0.00 | 43 | 1016.0 |
| 20260506220735 | 75 | 286 | 0.0 | 15.0 | 0.00 | 0.00 | 0.00 | 43 | 1016.1 |
| 20260506220235 | 75 | 264 | 0.0 | 10.0 | 0.00 | 0.00 | 0.00 | 43 | 1016.1 |
| 20260506215735 | 75 | 238 | 2.0 | 10.0 | 0.00 | 0.00 | 0.00 | 43 | 1016.2 |
| 20260506215235 | 75 | 320 | 2.0 | 12.0 | 0.00 | 0.00 | 0.00 | 43 | 1016.1 |
| 20260506214735 | 75 | 229 | 1.0 | 14.0 | 0.00 | 0.00 | 0.00 | 43 | 1016.2 |
| 20260506214234 | 75 | 283 | 0.0 | 14.0 | 0.00 | 0.00 | 0.00 | 43 | 1016.2 |
| 20260506213734 | 75 | 215 | 1.0 | 13.0 | 0.00 | 0.00 | 0.00 | 43 | 1016.2 |
| 20260506212734 | 75 | 203 | 3.0 | 14.0 | 0.00 | 0.00 | 0.00 | 43 | 1016.3 |
| 20260506212234 | 74 | 233 | 5.0 | 12.0 | 0.00 | 0.00 | 0.00 | 43 | 1016.2 |
| 20260506211734 | 74 | 186 | 2.0 | 12.0 | 0.00 | 0.00 | 0.00 | 43 | 1016.1 |
| 20260506211234 | 74 | 301 | 7.0 | 12.0 | 0.00 | 0.00 | 0.00 | 44 | 1016.3 |
| 20260506210734 | 74 | 325 | 6.0 | 12.0 | 0.00 | 0.00 | 0.00 | 44 | 1016.2 |
| 20260506205734 | 74 | 265 | 4.0 | 13.0 | 0.00 | 0.00 | 0.00 | 43 | 1016.3 |
| 20260506204734 | 74 | 221 | 3.0 | 15.0 | 0.00 | 0.00 | 0.00 | 43 | 1016.3 |
| 20260506204234 | 74 | 303 | 0.0 | 15.0 | 0.00 | 0.00 | 0.00 | 43 | 1016.2 |
| 20260506203734 | 75 | 214 | 3.0 | 12.0 | 0.00 | 0.00 | 0.00 | 42 | 1016.2 |
| 20260506203234 | 75 | 306 | 3.0 | 11.0 | 0.00 | 0.00 | 0.00 | 42 | 1016.2 |
| 20260506202733 | 75 | 17 | 1.0 | 11.0 | 0.00 | 0.00 | 0.00 | 42 | 1016.3 |
| 20260506202233 | 75 | 257 | 9.0 | 11.0 | 0.00 | 0.00 | 0.00 | 42 | 1016.2 |
| 20260506201733 | 76 | 320 | 2.0 | 13.0 | 0.00 | 0.00 | 0.00 | 42 | 1016.3 |
| 20260506201233 | 76 | 312 | 6.0 | 13.0 | 0.00 | 0.00 | 0.00 | 41 | 1016.4 |
| 20260506200733 | 76 | 261 | 4.0 | 11.0 | 0.00 | 0.00 | 0.00 | 41 | 1016.4 |
| 20260506200233 | 76 | 263 | 5.0 | 11.0 | 0.00 | 0.00 | 0.00 | 41 | 1016.4 |
| 20260506195733 | 76 | 222 | 0.0 | 8.0 | 0.00 | 0.00 | 0.00 | 41 | 1016.4 |
| 20260506195234 | 76 | 291 | 1.0 | 8.0 | 0.00 | 0.00 | 0.00 | 41 | 1016.4 |
| 20260506194733 | 76 | 196 | 3.0 | 6.0 | 0.00 | 0.00 | 0.00 | 41 | 1016.4 |
| 20260506193733 | 76 | 248 | 2.0 | 11.0 | 0.00 | 0.00 | 0.00 | 40 | 1016.3 |
| 20260506193233 | 76 | 246 | 3.0 | 6.0 | 0.00 | 0.00 | 0.00 | 40 | 1016.3 |
| 20260506192734 | 76 | 199 | 0.0 | 6.0 | 0.00 | 0.00 | 0.00 | 40 | 1016.4 |
| 20260506191732 | 76 | 213 | 3.0 | 6.0 | 0.00 | 0.00 | 0.00 | 40 | 1016.5 |
| 20260506191232 | 76 | 220 | 5.0 | 7.0 | 0.00 | 0.00 | 0.00 | 39 | 1016.6 |
| 20260506190732 | 76 | 248 | 3.0 | 7.0 | 0.00 | 0.00 | 0.00 | 39 | 1016.7 |
| 20260506190232 | 75 | 288 | 4.0 | 5.0 | 0.00 | 0.00 | 0.00 | 39 | 1016.7 |
| 20260506185732 | 75 | 145 | 0.0 | 4.0 | 0.00 | 0.00 | 0.00 | 39 | 1016.8 |
| 20260506184734 | 74 | 331 | 0.0 | 7.0 | 0.00 | 0.00 | 0.00 | 39 | 1017.0 |
| 20260506183732 | 74 | 221 | 2.0 | 7.0 | 0.00 | 0.00 | 0.00 | 38 | 1017.1 |
| 20260506183232 | 74 | 186 | 0.0 | 7.0 | 0.00 | 0.00 | 0.00 | 37 | 1017.2 |
| 20260506182232 | 73 | 288 | 0.0 | 6.0 | 0.00 | 0.00 | 0.00 | 37 | 1017.3 |
| 20260506181732 | 72 | 182 | 2.0 | 5.0 | 0.00 | 0.00 | 0.00 | 37 | 1017.4 |
| 20260506181232 | 72 | 178 | 2.0 | 6.0 | 0.00 | 0.00 | 0.00 | 36 | 1017.4 |
| 20260506180732 | 71 | 264 | 1.0 | 6.0 | 0.00 | 0.00 | 0.00 | 36 | 1017.4 |
| 20260506180231 | 71 | 257 | 1.0 | 6.0 | 0.00 | 0.00 | 0.00 | 35 | 1017.5 |
| 20260506175732 | 70 | 270 | 0.0 | 10.0 | 0.00 | 0.00 | 0.00 | 35 | 1017.6 |
| 20260506175232 | 70 | 300 | 0.0 | 10.0 | 0.00 | 0.00 | 0.00 | 35 | 1017.5 |
| 20260506174232 | 69 | 171 | 2.0 | 5.0 | 0.00 | 0.00 | 0.00 | 34 | 1017.4 |
| 20260506173732 | 68 | 172 | 2.0 | 4.0 | 0.00 | 0.00 | 0.00 | 34 | 1017.5 |
| 20260506173231 | 68 | 171 | 0.0 | 4.0 | 0.00 | 0.00 | 0.00 | 34 | 1017.5 |
| 20260506172731 | 67 | 165 | 0.0 | 5.0 | 0.00 | 0.00 | 0.00 | 34 | 1017.4 |
| 20260506172231 | 67 | 182 | 2.0 | 5.0 | 0.00 | 0.00 | 0.00 | 33 | 1017.5 |
| 20260506171231 | 66 | 180 | 1.0 | 5.0 | 0.00 | 0.00 | 0.00 | 33 | 1017.5 |
| 20260506170731 | 66 | 179 | 0.0 | 5.0 | 0.00 | 0.00 | 0.00 | 32 | 1017.5 |
| 20260506165731 | 65 | 198 | 0.0 | 5.0 | 0.00 | 0.00 | 0.00 | 32 | 1017.5 |
| 20260506164730 | 64 | 193 | 0.0 | 5.0 | 0.00 | 0.00 | 0.00 | 31 | 1017.4 |
| 20260506164230 | 63 | 192 | 1.0 | 5.0 | 0.00 | 0.00 | 0.00 | 31 | 1017.4 |
| 20260506163731 | 63 | 191 | 0.0 | 5.0 | 0.00 | 0.00 | 0.00 | 31 | 1017.4 |
| 20260506163230 | 62 | 161 | 1.0 | 4.0 | 0.00 | 0.00 | 0.00 | 30 | 1017.3 |
| 20260506162730 | 62 | 160 | 3.0 | 4.0 | 0.00 | 0.00 | 0.00 | 30 | 1017.4 |
| 20260506162231 | 61 | 161 | 0.0 | 4.0 | 0.00 | 0.00 | 0.00 | 30 | 1017.4 |
| 20260506161730 | 61 | 106 | 2.0 | 4.0 | 0.00 | 0.00 | 0.00 | 30 | 1017.4 |
| 20260506161230 | 61 | 338 | 0.0 | 2.0 | 0.00 | 0.00 | 0.00 | 29 | 1017.4 |
| 20260506160730 | 61 | 338 | 0.0 | 2.0 | 0.00 | 0.00 | 0.00 | 29 | 1017.5 |
| 20260506160230 | 61 | 338 | 0.0 | 3.0 | 0.00 | 0.00 | 0.00 | 28 | 1017.5 |
| 20260506155730 | 60 | 338 | 1.0 | 4.0 | 0.00 | 0.00 | 0.00 | 28 | 1017.5 |
| 20260506155230 | 60 | 338 | 0.0 | 6.0 | 0.00 | 0.00 | 0.00 | 27 | 1017.5 |
| 20260506154730 | 60 | 339 | 0.0 | 6.0 | 0.00 | 0.00 | 0.00 | 27 | 1017.5 |
| 20260506154230 | 59 | 339 | 3.0 | 4.0 | 0.00 | 0.00 | 0.00 | 26 | 1017.4 |
| 20260506152729 | 59 | 338 | 0.0 | 4.0 | 0.00 | 0.00 | 0.00 | 23 | 1017.5 |
| 20260506152230 | 59 | 339 | 0.0 | 4.0 | 0.00 | 0.00 | 0.00 | 22 | 1017.5 |
| 20260506151229 | 58 | 339 | 0.0 | 1.0 | 0.00 | 0.00 | 0.00 | 20 | 1017.5 |
| 20260506150730 | 58 | 339 | 0.0 | 1.0 | 0.00 | 0.00 | 0.00 | 20 | 1017.5 |
| 20260506150229 | 57 | 339 | 0.0 | 0.0 | 0.00 | 0.00 | 0.00 | 18 | 1017.4 |
| 20260506145729 | 57 | 338 | 0.0 | 0.0 | 0.00 | 0.00 | 0.00 | 18 | 1017.6 |
| 20260506145229 | 56 | 338 | 0.0 | 0.0 | 0.00 | 0.00 | 0.00 | 18 | 1017.5 |
| 20260506144729 | 56 | 339 | 0.0 | 3.0 | 0.00 | 0.00 | 0.00 | 18 | 1017.5 |
| 20260506144229 | 56 | 339 | 0.0 | 3.0 | 0.00 | 0.00 | 0.00 | 18 | 1017.5 |
| 20260506143729 | 56 | 339 | 0.0 | 1.0 | 0.00 | 0.00 | 0.00 | 17 | 1017.4 |
| 20260506143229 | 56 | 339 | 0.0 | 0.0 | 0.00 | 0.00 | 0.00 | 17 | 1017.4 |
| 20260506142229 | 55 | 338 | 0.0 | 0.0 | 0.00 | 0.00 | 0.00 | 17 | 1017.4 |
| 20260506141729 | 55 | 340 | 0.0 | 0.0 | 0.00 | 0.00 | 0.00 | 17 | 1017.4 |
| 20260506140728 | 55 | 334 | 0.0 | 0.0 | 0.00 | 0.00 | 0.00 | 16 | 1017.4 |
| 20260506140229 | 55 | 303 | 0.0 | 0.0 | 0.00 | 0.00 | 0.00 | 16 | 1017.4 |
| 20260506135728 | 55 | 303 | 0.0 | 0.0 | 0.00 | 0.00 | 0.00 | 16 | 1017.4 |
| 20260506135229 | 55 | 304 | 0.0 | 0.0 | 0.00 | 0.00 | 0.00 | 16 | 1017.3 |
| 20260506134729 | 55 | 304 | 0.0 | 0.0 | 0.00 | 0.00 | 0.00 | 16 | 1017.4 |
| 20260506134228 | 54 | 304 | 0.0 | 0.0 | 0.00 | 0.00 | 0.00 | 16 | 1017.3 |
| 20260506133729 | 54 | 304 | 0.0 | 0.0 | 0.00 | 0.00 | 0.00 | 16 | 1017.4 |
| 20260506133228 | 54 | 304 | 0.0 | 0.0 | 0.00 | 0.00 | 0.00 | 16 | 1017.3 |
| 20260506132728 | 54 | 304 | 0.0 | 0.0 | 0.00 | 0.00 | 0.00 | 16 | 1017.2 |
| 20260506132228 | 54 | 304 | 0.0 | 0.0 | 0.00 | 0.00 | 0.00 | 16 | 1017.1 |
| 20260506131728 | 54 | 304 | 0.0 | 0.0 | 0.00 | 0.00 | 0.00 | 16 | 1017.1 |
| 20260506130228 | 54 | 304 | 0.0 | 0.0 | 0.00 | 0.00 | 0.00 | 16 | 1016.9 |
| 20260506125228 | 54 | 304 | 0.0 | 0.0 | 0.00 | 0.00 | 0.00 | 16 | 1016.9 |
| 20260506124728 | 54 | 304 | 0.0 | 0.0 | 0.00 | 0.00 | 0.00 | 16 | 1017.0 |
| 20260506124228 | 54 | 304 | 0.0 | 0.0 | 0.00 | 0.00 | 0.00 | 16 | 1017.0 |
| 20260506123727 | 54 | 304 | 0.0 | 0.0 | 0.00 | 0.00 | 0.00 | 16 | 1016.9 |
| 20260506123227 | 54 | 304 | 0.0 | 0.0 | 0.00 | 0.00 | 0.00 | 15 | 1016.9 |
| 20260506122727 | 54 | 295 | 0.0 | 0.0 | 0.00 | 0.00 | 0.00 | 15 | 1017.0 |
| 20260506121728 | 54 | 295 | 0.0 | 0.0 | 0.00 | 0.00 | 0.00 | 15 | 1017.0 |
| 20260506121226 | 54 | 295 | 0.0 | 0.0 | 0.00 | 0.00 | 0.00 | 15 | 1016.9 |
| 20260506120727 | 54 | 295 | 0.0 | 0.0 | 0.00 | 0.00 | 0.00 | 15 | 1016.9 |
| 20260506120227 | 54 | 295 | 0.0 | 0.0 | 0.00 | 0.00 | 0.00 | 15 | 1016.9 |
| 20260506115227 | 54 | 295 | 0.0 | 0.0 | 0.00 | 0.00 | 0.00 | 15 | 1017.2 |
| 20260506114726 | 54 | 295 | 0.0 | 0.0 | 0.00 | 0.00 | 0.00 | 15 | 1017.2 |
| 20260506114227 | 54 | 295 | 0.0 | 0.0 | 0.00 | 0.00 | 0.00 | 15 | 1017.3 |
| 20260506113726 | 54 | 295 | 0.0 | 0.0 | 0.00 | 0.00 | 0.00 | 15 | 1017.3 |
| 20260506112226 | 55 | 295 | 0.0 | 0.0 | 0.00 | 0.00 | 0.00 | 15 | 1017.2 |
| 20260506111726 | 55 | 295 | 0.0 | 0.0 | 0.00 | 0.00 | 0.00 | 15 | 1017.2 |
| 20260506111227 | 55 | 295 | 0.0 | 0.0 | 0.00 | 0.00 | 0.00 | 15 | 1017.1 |
| 20260506110726 | 55 | 295 | 0.0 | 0.0 | 0.00 | 0.00 | 0.00 | 15 | 1017.1 |
| 20260506110226 | 55 | 295 | 0.0 | 0.0 | 0.00 | 0.00 | 0.00 | 15 | 1017.2 |
| 20260506105726 | 55 | 295 | 0.0 | 0.0 | 0.00 | 0.00 | 0.00 | 15 | 1017.2 |
| 20260506104726 | 55 | 295 | 0.0 | 0.0 | 0.00 | 0.00 | 0.00 | 15 | 1017.1 |
| 20260506103725 | 55 | 295 | 0.0 | 0.0 | 0.00 | 0.00 | 0.00 | 15 | 1017.1 |
| 20260506103225 | 55 | 295 | 0.0 | 0.0 | 0.00 | 0.00 | 0.00 | 15 | 1017.1 |
| 20260506102726 | 55 | 295 | 0.0 | 0.0 | 0.00 | 0.00 | 0.00 | 15 | 1017.1 |
| 20260506101725 | 55 | 295 | 0.0 | 0.0 | 0.00 | 0.00 | 0.00 | 15 | 1017.0 |
| 20260506101225 | 55 | 295 | 0.0 | 0.0 | 0.00 | 0.00 | 0.00 | 15 | 1017.1 |
| 20260506100725 | 55 | 295 | 0.0 | 0.0 | 0.00 | 0.00 | 0.00 | 15 | 1017.1 |
| 20260506100225 | 55 | 295 | 0.0 | 0.0 | 0.00 | 0.00 | 0.00 | 15 | 1017.0 |
| 20260506095725 | 55 | 295 | 0.0 | 0.0 | 0.00 | 0.00 | 0.00 | 15 | 1016.9 |
| 20260506094225 | 55 | 295 | 2.0 | 2.0 | 0.00 | 0.00 | 0.00 | 15 | 1017.0 |
| 20260506093224 | 55 | 295 | 0.0 | 0.0 | 0.00 | 0.00 | 0.00 | 15 | 1017.0 |
| 20260506092725 | 55 | 295 | 0.0 | 2.0 | 0.00 | 0.00 | 0.00 | 15 | 1017.0 |
| 20260506092225 | 55 | 295 | 0.0 | 2.0 | 0.00 | 0.00 | 0.00 | 15 | 1017.0 |
| 20260506091724 | 55 | 295 | 0.0 | 0.0 | 0.00 | 0.00 | 0.00 | 15 | 1017.1 |
| 20260506091225 | 55 | 295 | 0.0 | 0.0 | 0.00 | 0.00 | 0.00 | 14 | 1017.1 |
| 20260506090724 | 55 | 295 | 0.0 | 0.0 | 0.00 | 0.00 | 0.00 | 14 | 1017.1 |
| 20260506085724 | 55 | 295 | 0.0 | 1.0 | 0.00 | 0.00 | 0.00 | 14 | 1017.2 |
| 20260506085224 | 55 | 295 | 0.0 | 5.0 | 0.00 | 0.00 | 0.00 | 14 | 1017.3 |
| 20260506084724 | 55 | 295 | 0.0 | 5.0 | 0.00 | 0.00 | 0.00 | 14 | 1017.3 |
| 20260506084224 | 55 | 294 | 0.0 | 4.0 | 0.00 | 0.00 | 0.00 | 14 | 1017.4 |
| 20260506083724 | 55 | 294 | 0.0 | 0.0 | 0.00 | 0.00 | 0.00 | 14 | 1017.3 |
| 20260506083223 | 55 | 294 | 0.0 | 0.0 | 0.00 | 0.00 | 0.00 | 14 | 1017.4 |
| 20260506082724 | 54 | 294 | 0.0 | 0.0 | 0.00 | 0.00 | 0.00 | 14 | 1017.4 |
| 20260506082224 | 54 | 294 | 0.0 | 0.0 | 0.00 | 0.00 | 0.00 | 14 | 1017.5 |
| 20260506081723 | 54 | 294 | 0.0 | 0.0 | 0.00 | 0.00 | 0.00 | 15 | 1017.3 |
| 20260506080723 | 54 | 294 | 0.0 | 0.0 | 0.00 | 0.00 | 0.00 | 15 | 1017.4 |
| 20260506080223 | 53 | 294 | 0.0 | 0.0 | 0.00 | 0.00 | 0.00 | 15 | 1017.3 |
| 20260506073223 | 52 | 294 | 0.0 | 0.0 | 0.00 | 0.00 | 0.00 | 17 | 1017.3 |
| 20260506072723 | 52 | 294 | 0.0 | 0.0 | 0.00 | 0.00 | 0.00 | 18 | 1017.3 |
| 20260506072223 | 52 | 294 | 0.0 | 0.0 | 0.00 | 0.00 | 0.00 | 18 | 1017.3 |
| 20260506071723 | 52 | 294 | 0.0 | 0.0 | 0.00 | 0.00 | 0.00 | 18 | 1017.2 |
| 20260506070253 | 52 | 294 | 0.0 | 0.0 | 0.00 | 0.00 | 0.00 | 19 | 1017.1 |